Weather History for Sheboygan, WI

Change the Weather History Date:

Wednesday, December 19, 2012

  Actual Average Record
Temperature  
Mean Temperature 22 °F -  
Max Temperature 30 °F 31 °F 47 °F (1957)
Min Temperature 15 °F 19 °F -16 °F (1983)
Degree Days  
Heating Degree Days 42    
Moisture  
Dew Point 24 °F    
Average Humidity 93    
Maximum Humidity 100    
Minimum Humidity 82    
Precipitation  
Precipitation 0.02 in - - ()
Sea Level Pressure  
Sea Level Pressure 29.99 in    
Wind  
Wind Speed 4 mph (WNW)    
Max Wind Speed 8 mph    
Max Gust Speed -    
Visibility 5 miles    
Events Fog , Snow    
Averages and records for this station are not official NWS values.
T = Trace of Precipitation, MM = Missing Value Source: NWS Daily Summary

Daily Weather History Graph

Daily Weather History Graph

Search for Another Location

Airport:

Trip Planner

Search our weather history database for the weather conditions in past years. The results will help you decide how hot, cold, wet, or windy it might be!

Date:

Astronomy

Dec. 19, 2012 Rise Set
Actual Time 7:21 AM CST 4:16 PM CST
Civil Twilight 6:48 AM CST 4:49 PM CST
Nautical Twilight 6:11 AM CST 5:25 PM CST
Astronomical Twilight 5:36 AM CST 6:00 PM CST
Moon 11:17 AM CST (12/19) 11:57 PM CST (12/19)
Length of Visible Light 10h 00m
Length of Day
8h 55m
Waxing Crescent, 45% of the Moon is Illuminated
Dec 19
Waxing Crescent
Dec 19
First Quarter
Dec 28
Full
Jan 4
Last Quarter
Jan 11
New

Hourly Weather History & Observations

Time (CST) Temp. Windchill Dew Point Humidity Pressure Visibility Wind Dir Wind Speed Gust Speed Precip Events Conditions
12:28 AM 30.2 °F 23.4 °F 28.4 °F 93% 29.82 in 8.0 mi WNW 6.9 mph - N/A   Overcast
12:53 AM 30.9 °F 26.2 °F 28.9 °F 92% 29.86 in 9.0 mi NW 4.6 mph - N/A   Overcast
1:53 AM 27.0 °F 23.0 °F 26.1 °F 96% 29.89 in 8.0 mi WNW 3.5 mph - N/A   Scattered Clouds
2:53 AM 26.1 °F 18.4 °F 24.1 °F 92% 29.92 in 8.0 mi WNW 6.9 mph - N/A   Clear
3:53 AM 24.1 °F - 23.0 °F 96% 29.93 in 9.0 mi Calm Calm - N/A   Clear
4:53 AM 21.9 °F - 21.0 °F 96% 29.94 in 4.0 mi Calm Calm - N/A   Clear
5:11 AM 19.4 °F - 19.4 °F 100% 29.91 in 1.8 mi Calm Calm - N/A   Clear
5:21 AM 17.6 °F - 17.6 °F 100% 29.91 in 0.5 mi Calm Calm - N/A Fog Light Freezing Fog
5:40 AM 19.4 °F 14.3 °F 17.6 °F 93% 29.92 in 0.5 mi WSW 3.5 mph - N/A Fog Light Freezing Fog
5:50 AM 15.8 °F 10.2 °F 15.8 °F 100% 29.92 in 1.2 mi WSW 3.5 mph - N/A   Clear
5:53 AM 16.0 °F - 16.0 °F 100% 29.96 in 1.0 mi Calm Calm - N/A   Clear
6:01 AM 17.6 °F - 17.6 °F 100% 29.93 in 0.2 mi Calm Calm - N/A Fog Light Freezing Fog
6:43 AM 15.8 °F 6.1 °F 15.8 °F 100% 29.96 in 1.0 mi SW 6.9 mph - N/A   Mist
6:46 AM 15.8 °F 6.1 °F 15.8 °F 100% 29.96 in 2.0 mi SW 6.9 mph - N/A   Partly Cloudy
6:53 AM 17.1 °F 8.7 °F 15.1 °F 92% 30.00 in 5.0 mi SW 5.8 mph - N/A   Partly Cloudy
7:53 AM 19.0 °F 11.1 °F 19.0 °F 100% 30.02 in 4.0 mi WSW 5.8 mph - N/A   Clear
8:53 AM 21.9 °F 17.2 °F 21.0 °F 96% 30.05 in 4.0 mi SSW 3.5 mph - N/A   Clear
9:53 AM 25.0 °F 20.7 °F 25.0 °F 100% 30.07 in 4.0 mi WSW 3.5 mph - N/A   Clear
10:53 AM 28.0 °F - 28.0 °F 100% 30.07 in 4.0 mi Calm Calm - N/A   Clear
11:15 AM 28.4 °F - 26.6 °F 93% 30.03 in 5.0 mi Calm Calm - N/A   Mostly Cloudy
11:53 AM 30.9 °F 24.3 °F 26.1 °F 82% 30.06 in 8.0 mi West 6.9 mph - N/A   Overcast
12:45 PM 30.2 °F 23.4 °F 26.6 °F 86% 30.01 in 7.0 mi WNW 6.9 mph - N/A   Overcast
12:53 PM 30.0 °F 23.2 °F 26.1 °F 85% 30.04 in 7.0 mi West 6.9 mph - N/A   Overcast
1:53 PM 30.0 °F 26.5 °F 26.1 °F 85% 30.06 in 9.0 mi West 3.5 mph - N/A   Overcast
2:53 PM 30.9 °F 27.5 °F 27.0 °F 85% 30.07 in 9.0 mi WSW 3.5 mph - N/A   Overcast
3:53 PM 30.9 °F - 26.1 °F 82% 30.09 in 9.0 mi Calm Calm - N/A   Overcast
4:53 PM 30.0 °F - 27.0 °F 88% 30.10 in 10.0 mi Calm Calm - N/A   Overcast
5:53 PM 30.0 °F - 28.0 °F 92% 30.12 in 10.0 mi Calm Calm - N/A   Overcast
6:53 PM 30.0 °F 25.2 °F 27.0 °F 88% 30.09 in 8.0 mi East 4.6 mph - N/A   Overcast
7:53 PM 30.0 °F 26.5 °F 27.0 °F 88% 30.08 in 8.0 mi East 3.5 mph - N/A   Overcast
8:53 PM 30.0 °F - 27.0 °F 88% 30.07 in 9.0 mi Calm Calm - N/A   Overcast
9:13 PM 30.2 °F 25.4 °F 28.4 °F 93% 30.02 in 8.0 mi NNE 4.6 mph - N/A   Overcast
9:32 PM 30.2 °F 25.4 °F 26.6 °F 86% 30.00 in 8.0 mi NE 4.6 mph - N/A   Overcast
9:53 PM 30.0 °F 26.5 °F 28.0 °F 92% 30.03 in 8.0 mi ENE 3.5 mph - N/A   Overcast
10:14 PM 30.2 °F - 28.4 °F 93% 30.00 in 7.0 mi Calm Calm - N/A   Overcast
10:53 PM 30.9 °F 27.5 °F 28.0 °F 89% 30.02 in 7.0 mi NNW 3.5 mph - N/A   Overcast
11:08 PM 30.2 °F 25.4 °F 28.4 °F 93% 29.98 in 2.0 mi North 4.6 mph - 0.00 in Snow Light Snow
11:16 PM 30.2 °F 23.4 °F 28.4 °F 93% 29.97 in 1.2 mi North 6.9 mph - 0.00 in Snow Light Snow
11:40 PM 30.2 °F 23.4 °F 30.2 °F 100% 29.95 in 1.0 mi NNE 6.9 mph - 0.01 in Snow Light Snow
11:53 PM 30.9 °F 23.5 °F 30.9 °F 100% 29.95 in 1.0 mi NE 8.1 mph - 0.02 in Snow Light Snow